TOP > 外国特許検索

外国特許検索

表示件数 詳細検索
特許の状態
出願国

リセット

該当件数 4753件

No. 出願番号
公報番号
出願国
発明の名称
掲載日
更新日
データ提供機関
1301 2010JP067549 WO 2011/043376 世界知的所有権機関(WIPO) SUPERCONDUCTOR CABLE AND AC POWER TRANSMISSION CABLE 2012/02/02 2012/03/01 九州工業大学
1302 2010JP066890 WO 2011/040428 世界知的所有権機関(WIPO) ANTI-TUMOR AGENT AND METHOD FOR SCREENING FOR SAME 2012/02/06 2012/03/01 慶應義塾大学
1303 2010JP053789 WO 2010/104034 世界知的所有権機関(WIPO) METHOD FOR PRODUCING OPTICALLY ACTIVE 2-HYDROXY ESTER AND NOVEL INTERMEDIATE COMPOUND 2012/02/06 2012/03/01 東京理科大学
1304 2010JP061791 WO 2011007764 世界知的所有権機関(WIPO) SUGAR CHAIN MARKER AS MEASURE OF DISEASE CONDITIONS OF HEPATIC DISEASES 2012/02/06 2019/04/23 名古屋市立大学
1305 2010JP050030 WO 2010/079781 世界知的所有権機関(WIPO) FIBROUS NICKEL AND METHOD FOR PRODUCING THE SAME 2012/02/07 2012/03/01 九州大学
1306 2010JP063253 WO 2011/080942 世界知的所有権機関(WIPO) BEAM IRRADIATION APPARATUS AND BEAM IRRADIATION CONTROL METHOD 2012/02/07 2012/03/01 群馬大学
1307 2009JP006406 WO 2010/061617 世界知的所有権機関(WIPO) SEMICONDUCTOR LIGHT EMITTING ELEMENT AND METHOD FOR MANUFACTURING SAME 2012/02/07 2012/03/01 山口TLO
1308 2010JP059393 WO 2010/140639 世界知的所有権機関(WIPO) WATERMARK INFORMATION EMBEDDING APPARATUS, WATERMARK INFORMATION PROCESSING SYSTEM, WATERMARK INFORMATION EMBEDDING METHOD, AND PROGRAM 2012/02/07 2012/03/01 鹿児島大学
1309 2010JP059049 WO 2010/137671 世界知的所有権機関(WIPO) METHOD FOR ASSESSING LYMPH NODE METASTASIS OF CANCER OR THE RISK THEREOF, AND RAPID ASSESSMENT KIT FOR SAID METHOD 2012/02/07 2012/03/01 秋田大学
1310 2010JP063336 WO 2011/016537 世界知的所有権機関(WIPO) PHOTOELECTRIC CONVERSION DEVICE 新技術説明会 2012/02/07 2012/03/01 千葉大学
1311 2010JP063335 WO 2011/018984 世界知的所有権機関(WIPO) PHOTOELECTRIC CONVERSION DEVICE 新技術説明会 2012/02/07 2012/03/01 千葉大学
1312 2010JP054049 WO 2010/104130 世界知的所有権機関(WIPO) SPHERICAL ULTRASOUND MOTOR AND CONTROL METHOD FOR A SPHERICAL ULTRASOUND MOTOR 2012/02/07 2012/03/01 東京農工大学
1313 2010JP063284 WO 2011/036955 世界知的所有権機関(WIPO) CATALYST FOR HYDROLYSIS OF CELLULOSE OR HEMICELLULOSE, AND PROCESS FOR PRODUCTION OF SUGAR-CONTAINING SOLUTION USING THE CATALYST 2012/02/07 2012/03/01 北海道大学
1314 2009JP006733 WO 2010/067599 世界知的所有権機関(WIPO) PROCESS FOR EFFICIENTLY PRODUCING ALKYLATED CATECHIN 2012/02/07 2012/03/01 静岡県立大学
1315 2010JP058563 WO 2010/134580 世界知的所有権機関(WIPO) METHOD FOR PRODUCING AROMATIC FLUORINE COMPOUND AND NOVEL COMPOUND 2012/02/07 2012/03/01 静岡県立大学
1316 2011JP000059 WO 2011/086884 世界知的所有権機関(WIPO) METHOD AND PROGRAM FOR GENERATING TEST PATTERN FOR SEMICONDUCTOR INTEGRATED CIRCUIT, AND COMPUTER-READABLE STORAGE MEDIUM 新技術説明会 2012/02/09 2012/03/01 奈良先端科学技術大学院大学
1317 2009JP068929 WO 2010/073825 世界知的所有権機関(WIPO) ANTIBACTERIAL COMPOSITION AND ANTIVIRAL COMPOSITION EACH CONTAINING SILICON-CONTAINING COMPOUND, ANTIBACTERIALIZING METHOD, CLEANING/MOUTH CLEANING METHOD, AND METHOD FOR IMMOBILIZING ANTIBACTERIAL AGENT OR ANTIVIRAL AGENT 2012/02/14 2012/03/01 広島大学
1318 2010JP002149 WO 2010/109889 世界知的所有権機関(WIPO) SODIUM ION SECONDARY BATTERY 新技術説明会 2012/02/14 2012/03/01 東京理科大学
1319 2010JP069950 WO 2011/058975 世界知的所有権機関(WIPO) AGENT FOR AMELIORATING POSTPRANDIAL HYPERGLYCEMIA, AND PYRROLIDINE IMINOSUGAR OR SALT THEREOF 2012/02/15 2012/03/01 富山大学
1320 2011JP067583 WO 2012/015059 世界知的所有権機関(WIPO) OTHER VIEWPOINT CLOSED SURFACE IMAGE PIXEL VALUE CORRECTION DEVICE, METHOD OF CORRECTING OTHER VIEWPOINT CLOSED SURFACE IMAGE PIXEL VALUE, USER POSITION INFORMATION OUTPUT DEVICE, METHOD OF OUTPUTTING USER POSITION INFORMATION 2012/02/20 2012/03/01 芝浦工業大学
1321 2011JP056835 WO 2011118582 世界知的所有権機関(WIPO) METHOD FOR DECOMPOSING ALGINIC ACID 新技術説明会 2012/02/24 2019/04/24 北海道大学
1322 2010JP067614 WO 2011/046057 世界知的所有権機関(WIPO) NOVEL SUGAR CHAIN COMPOUND CONTAINING SIALYLLACTOSAMINE-TYPE OR SIALYL LEWIS X-TYPE SIALIC ACID AND FUCOSE 新技術説明会 2012/02/24 2012/03/01 産総研
1323 2010JP054009 WO 2010/104114 世界知的所有権機関(WIPO) METHOD FOR PREPARING POLYPEPTIDE LIBRARY 新技術説明会 2012/02/24 2012/03/01 産総研
1324 2011JP068585 WO 2012/029539 世界知的所有権機関(WIPO) METHOD OF SCREENING FOR PLANT DEFENSE ACTIVATORS, PLANT DEFENSE ACTIVATORS, AND METHOD OF ENHANCING IMMUNE RESPONSE 2012/02/24 2012/03/16 東京理科大学
1325 2010JP068868 WO 2011/052545 世界知的所有権機関(WIPO) METHOD FOR PRODUCING ANTIGEN-SPECIFIC B CELL POPULATION 2012/02/28 2012/03/01 東京理科大学
1326 2011JP005315 WO 2012/039135 世界知的所有権機関(WIPO) METHOD FOR PRODUCING 2-BORONATED AZULENE DERIVATIVE 新技術説明会 実績あり 2012/03/01 2012/04/05 山口TLO
1327 2010JP062905 WO 2011/013802 世界知的所有権機関(WIPO) NONDESTRUCTIVE TESTING METHOD AND DEVICE 2012/03/01 2012/04/04 九州大学
1328 2011JP057486 WO 2011/155248 世界知的所有権機関(WIPO) ENGINE 新技術説明会 2012/03/01 2012/04/05 早稲田大学
1329 2011JP053946 WO 2011/148683 世界知的所有権機関(WIPO) PHOTOCATALYST COMPOSITION AND METHOD FOR PRODUCING A PHOTOCATALYST COMPOSITION 新技術説明会 2012/03/01 2012/04/05 山梨大学
1330 2011JP054602 WO 2011/108530 世界知的所有権機関(WIPO) PARTICLE COATED WITH CARBON NANOTUBES, AND METHOD FOR PRODUCING SAME 2012/03/06 2012/04/04 九州大学
1331 2011JP056844 WO 2011/118587 世界知的所有権機関(WIPO) TEMPERATURE-, PH- OR SALT CONCENTRATION-SENSITIVE SEPARATION MATERIAL AND USE THEREOF 2012/03/06 2012/04/04 九州大学
1332 2011JP060887 WO 2011/142398 世界知的所有権機関(WIPO) FORCEPS SUPPORTING DEVICE 2012/03/06 2012/04/04 九州大学
1333 2010JP060503 WO 2011004697 世界知的所有権機関(WIPO) VACCINE FOR CRUSTACEAN ACUTE VIRAEMIA 2012/03/06 2019/04/22 宮崎大学
1334 2007JP001210 WO 2008/056444 世界知的所有権機関(WIPO) DUST MEASURING METHOD AND DUST MEASURING DEVICE 2012/03/08 2012/04/05 山口TLO
1335 2006JP301363 WO 2006/080463 世界知的所有権機関(WIPO) THERAPEUTIC AGENT FOR CANCER AND RECURRENCE PREVENTIVE EACH CONTAINING VITAMIN K HYDROQUINONE DERIVATIVE 2012/03/08 2012/04/05 福岡大学
1336 2010JP071659 WO 2011/068192 世界知的所有権機関(WIPO) ACOUSTIC CONVERSION DEVICE 2012/03/09 2012/04/04 科学技術振興機構(JST)
1337 2010JP072504 WO 2011/074587 世界知的所有権機関(WIPO) MAGNETIC CERAMIC AND PROCESS FOR PRODUCTION THEREOF 2012/03/15 2012/04/05 岡山大学
1338 2012JP051471 WO 2012/102278 世界知的所有権機関(WIPO) SOUND-ABSORBING BODY AND SOUND INSULATION WALL EQUIPPED WITH SAME 新技術説明会 実績あり 2012/03/15 2012/08/28 関西大学
1339 2012JP052739 WO 2012/108428 世界知的所有権機関(WIPO) PASTE FOR FORMING BONE SUBSTITUTE POROUS BODY, AND METHOD FOR PRODUCING SAME 2012/03/15 2012/08/28 関西大学
1340 2011JP063574 WO 2011/158823 世界知的所有権機関(WIPO) VIBRATION DAMPENING DEVICE 2012/03/21 2012/04/04 熊本大学
1341 2011JP006057 WO 2012/086114 世界知的所有権機関(WIPO) MACROLIDE COMPOUND HAVING ANTICANCER EFFECT 2012/03/21 2012/07/25 東北大学
1342 2011JP077762 WO 2012/074040 世界知的所有権機関(WIPO) BUGUANIDE DERIVATIVE COMPOUND 2012/03/21 2012/06/27 日大NUBIC
1343 2009JP068734 WO 2010/050604 世界知的所有権機関(WIPO) THREE-DIMENSIONAL OBJECT MANUFACTURED BY STEREOLITHOGRAPHY AND TO WHICH CYTOCOMPATIBILITY PROCESS IS APPLIED 2012/03/22 2012/04/04 科学技術振興機構(JST)
1344 2011JP051325 WO 2011/093274 世界知的所有権機関(WIPO) SUBSTRATE WITH TRANSPARENT CONDUCTIVE MULTILAYER STRUCTURE AND PROCESS FOR PRODUCING SAME 2012/03/22 2012/04/05 東北大学
1345 2011JP052411 WO 2011/096532 世界知的所有権機関(WIPO) SOLID ELECTROLYTE AND ELECTROCHEMICAL ELEMENT 2012/03/22 2012/04/05 秋田大学
1346 2011JP060488 WO 2011/136378 世界知的所有権機関(WIPO) GRAFTING MATERIAL FOR GENETIC AND CELL THERAPY 新技術説明会 実績あり 2012/03/23 2012/04/05 京都府立医科大学
1347 2012JP051205 WO 2012/099243 世界知的所有権機関(WIPO) GENE CAPABLE OF REGULATING OBESITY/INSULIN SENSITIVITY 2012/03/23 2012/08/28 京都府立医科大学
1348 2011JP054635 WO 2011/108543 世界知的所有権機関(WIPO) POTENTIAL OBTAINING DEVICE, MAGNETIC FIELD MICROSCOPE, INSPECTION DEVICE AND METHOD OF OBTAINING POTENTIAL 2012/03/26 2012/04/05 神戸大学
1349 2011JP052459 WO 2011/118267 世界知的所有権機関(WIPO) METHOD FOR IDENTIFYING NATURE OF CAROTID PLAQUE AND EVALUATION DEVICE 実績あり 2012/03/26 2012/04/05 徳島大学
1350 2011JP058445 WO 2011/125947 世界知的所有権機関(WIPO) INSERTION NEEDLE 2012/03/26 2012/04/05 宮崎大学
1351 2009JP071187 WO 2011/074125 世界知的所有権機関(WIPO) GRAPHENE OXIDE SHEET, ARTICLE CONTAINING GRAPHEME-CONTAINING SUBSTANCE PRODUCED BY REDUCING THE GRAPHENE OXIDE SHEET, AND PROCESS FOR PRODUCTION OF THE GRAPHENE OXIDE SHEET 2012/03/26 2012/04/05 北海道大学
1352 2010JP007231 WO 2011/074237 世界知的所有権機関(WIPO) SIC SEMICONDUCTOR ELEMENT AND MANUFACTURING METHOD FOR SAME 新技術説明会 2012/03/26 2012/04/05 奈良先端科学技術大学院大学
1353 2010JP067393 WO 2011/043309 世界知的所有権機関(WIPO) OPTICAL BODY 2012/03/26 2012/04/05 豊橋技術科学大学(とよはしTLO)
1354 2010JP068761 WO 2011/092909 世界知的所有権機関(WIPO) METAL MEMBER MANUFACTURING METHOD, AND METAL MEMBER 新技術説明会 2012/03/26 2012/04/05 東北大学
1355 2010JP070809 WO 2011/070908 世界知的所有権機関(WIPO) METAL ELECTROWINNING SYSTEM, AND ELECTROWINING METHOD USING THE SYSTEM 実績あり 2012/03/26 2012/04/05 同志社大学
1356 2010JP072817 WO 2011/078095 世界知的所有権機関(WIPO) TRANSMISSION CIRCUIT 2012/03/26 2012/04/05 電気通信大学
1357 2010JP072916 WO 2011/078126 世界知的所有権機関(WIPO) TN LIQUID CRYSTAL ELEMENT, AND METHOD FOR PRODUCING SAME 新技術説明会 2012/03/26 2012/04/05 東京理科大学
1358 2010JP073176 WO 2011/081070 世界知的所有権機関(WIPO) THREE DIMENSIONAL COORDINATE LOCATION DEVICE, METHOD FOR SAME, AND PROGRAM 2012/03/26 2012/04/05 福岡大学
1359 2009JP054930 WO 2010/103661 世界知的所有権機関(WIPO) BODY TISSUE IMAGING USING RAMAN SCATTERING LIGHT 新技術説明会 2012/03/27 2012/04/05 京都府立医科大学
1360 2011JP054548 WO 2011/105609 世界知的所有権機関(WIPO) METALLIC MATERIAL WHICH IS SOLID SOLUTION OF BODY-CENTERED CUBIC (BCC) STRUCTURE HAVING CONTROLLED CRYSTAL AXIS <001> ORIENTATION, AND PROCESS FOR PRODUCING SAME 2012/03/27 2012/04/05 横浜国立大学
1361 2010JP073841 WO 2011081212 世界知的所有権機関(WIPO) EXTERNAL RESONATOR LASER 2012/03/27 2019/04/22 千葉大学
1362 2011JP000245 WO 2011/089892 世界知的所有権機関(WIPO) METHOD FOR BONDING HARDENED SILICONE RESIN, METHOD FOR JOINING SUBSTRATE HAVING FINE STRUCTURE, AND METHOD FOR MANUFACTURING MICRO FLUID DEVICE USING THE METHOD FOR JOINING. 新技術説明会 2012/03/27 2012/04/05 東京工業大学
1363 2011JP050490 WO 2011/083870 世界知的所有権機関(WIPO) MOUSE ARTIFICIAL CHROMOSOME VECTOR 新技術説明会 実績あり 2012/03/27 2012/04/05 鳥取大学
1364 2011JP050647 WO 2011/089995 世界知的所有権機関(WIPO) HYDROXAMIC ACID DERIVATIVE AND HDAC8 INHIBITOR USING SAME 新技術説明会 2012/03/27 2012/04/05 名古屋市立大学
1365 2011JP050880 WO 2011/090078 世界知的所有権機関(WIPO) RESIN COMPOSITION FOR MEDICAL USE, MANUFACTURING METHOD THEREOF, AND MEDICAL KIT 新技術説明会 2012/03/27 2012/04/05 岡山大学
1366 2011JP051237 WO 2011/090199 世界知的所有権機関(WIPO) BRAIN SIGNAL MEASUREMENT SYSTEM, IN VIVO MEASUREMENT DEVICE, AND BRAIN SIGNAL MEASUREMENT POSITION CONTROL METHOD 2012/03/27 2012/04/04 九州工業大学
1367 2011JP051636 WO 2011093393 世界知的所有権機関(WIPO) METHOD FOR ASSESSMENT OF POTENTIAL FOR DEVELOPMENT OF DRAVET SYNDROME AND USE THEREOF 2012/03/27 2019/04/24 岡山大学
1368 2011JP051944 WO 2011/096367 世界知的所有権機関(WIPO) MOBILE FLOOR REACTION FORCE MEASURING DEVICE 2012/03/27 2012/04/05 同志社大学
1369 2011JP052710 WO 2011/099502 世界知的所有権機関(WIPO) USE OF COMPOUND BINDING TO MSIN3B THAT SPECIFICALLY BINDS TO NEURON RESTRICTIVE SILENCER FACTOR (NRSF) 2012/03/27 2012/04/05 横浜市立大学
1370 2011JP053497 WO 2011/102461 世界知的所有権機関(WIPO) PROTEIN EXPRESSED SPECIFICALLY IN OVARIAN CLEAR CELL ADENOCARCINOMA AND USE APPLICATIONS THEREOF 2012/03/27 2012/04/05 横浜市立大学
1371 2010JP051306 WO 2010/084999 世界知的所有権機関(WIPO) IMMUNOSUPPRESSIVE AGENTS AND PROPHYLACTIC AND THERAPEUTIC AGENTS FOR AUTOIMMUNE DISEASES 2012/03/27 2012/07/25 岡山大学
1372 2012JP050872 WO 2012/099129 世界知的所有権機関(WIPO) COMPOUND HAVING ANTI-CANCER ACTIVITY 2012/03/27 2012/08/28 長崎大学
1373 2011JP069215 WO 2012/026543 世界知的所有権機関(WIPO) MRE VIBRATION DEVICE, VIBRATION SYSTEM, AND VIBRATION METHOD 2012/03/28 2012/04/05 北海道大学
1374 2010JP053342 WO 2010/101147 世界知的所有権機関(WIPO) HYDROGEL FORMING AGENT 新技術説明会 2012/03/29 2012/04/05 静岡大学
1375 2010JP055450 WO 2010/110452 世界知的所有権機関(WIPO) FLUORESCENT THIN FILM, METHOD FOR MANUFACTURING FLUORESCENT THIN FILM, FINE LIGHT SOURCE EXCITATION APPARATUS, AND OPTICAL MICROSCOPE 2012/03/29 2012/04/05 静岡大学
1376 2010JP059620 WO 2010/143606 世界知的所有権機関(WIPO) NOVEL SITE-SPECIFIC RECOMBINATION ENZYME AND SITE-SPECIFIC RECOMBINATION METHOD USING SEQUENCE CAPABLE OF RECOGNIZING THE ENZYME 2012/03/29 2012/04/04 かずさDNA研究所
1377 2004JP006662 WO 2004/100831 世界知的所有権機関(WIPO) METHOD OF REMOVING CELL 2012/04/03 2012/04/05 早稲田大学
1378 2011JP078506 WO 2012077774 世界知的所有権機関(WIPO) DEVICE FOR PROPHYLAXIS AND TREATMENT OF SYSTEMIC LUPUS ERYTHEMATOSUS 2012/04/03 2019/04/19 札幌医科大学
1379 2011JP078036 WO 2012/081433 世界知的所有権機関(WIPO) BIOMARKER FOR AMYLOID-.BETA.-RELATED NEUROLOGICAL DISORDERS 2012/04/03 2018/10/30 札幌医科大学
1380 2012JP054408 WO 2012/115185 世界知的所有権機関(WIPO) COMPOSITION FOR TREATMENT, AMELIORATION OR PROPHYLAXIS OF PAIN 2012/04/03 2018/10/30 札幌医科大学
1381 2011JP055688 WO 2011111790 世界知的所有権機関(WIPO) PRODUCTION OF ENTERITIS EVOKING CAUSAL FACTOR BY HIGHLY PATHOGENIC ORAL BACTERIA AND HIGH SENSITIVITY DETECTION METHOD THEREFOR 新技術説明会 2012/04/04 2019/04/22 浜松医科大学
1382 2010JP072050 WO 2011/071088 世界知的所有権機関(WIPO) METHOD FOR PRODUCING SUPEROXIDE, METHOD FOR EVALUATING SUPEROXIDE SCAVENGING ABILITY, DEVICE FOR PRODUCING SUPEROXIDE, AND DEVICE FOR EVALUATING SUPEROXIDE SCAVENGING ABILITY 2012/04/05 2018/10/30 札幌医科大学
1383 2011JP070894 WO 2012/036168 世界知的所有権機関(WIPO) COMPOSITION FOR TREATING MUSCULAR DYSTROPHY 2012/04/05 2018/10/30 札幌医科大学
1384 2012JP002129 WO 2013/144999 世界知的所有権機関(WIPO) NEURONAL CULTURE MEDIUM AND METHOD FOR PRODUCING IN VIVO-LIKE AND ENHANCED SYNAPTOGENESIS NEURON MODEL 2012/04/09 2013/10/16 沖縄科学技術大学院大学学園(OIST)
1385 2012JP051720 WO 2012/102356 世界知的所有権機関(WIPO) CAPSULE-TYPE COMPOUND, ANION-REMOVING AGENT, AND ANION REMOVAL METHOD 新技術説明会 2012/04/09 2012/08/28 静岡大学
1386 2011JP077782 WO 2012/074043 世界知的所有権機関(WIPO) THERAPEUTIC AGENT FOR TRAUMATIC NEUROLOGICAL DISORDERS 2012/04/09 2012/06/27 岡山大学
1387 2012JP056015 WO 2012/121350 世界知的所有権機関(WIPO) PROCESS FOR PRODUCING ESTER DERIVED FROM BULKY HYDROXY-GROUP-CONTAINING COMPOUND 新技術説明会 2012/04/10 2012/09/25 四国TLO
1388 2010JP071131 WO 2011/065483 世界知的所有権機関(WIPO) ELECTROLYTE MEMBRANE, FUEL CELL, AND METHOD FOR MANUFACTURING AN ELECTROLYTE MEMBRANE 新技術説明会 2012/04/11 2012/04/26 豊橋技術科学大学(とよはしTLO)
1389 2011JP064846 WO 2012/008301 世界知的所有権機関(WIPO) METHOD FOR PRODUCING NOVEL HIPSC BY MEANS OF SIRNA INTRODUCTION 新技術説明会 2012/04/11 2012/04/26 鳥取大学
1390 2011JP064847 WO 2012/008302 世界知的所有権機関(WIPO) METHOD FOR PREPARING NOVEL HIPSC BY MEANS OF MIRNA INTRODUCTION 新技術説明会 2012/04/11 2012/04/26 鳥取大学
1391 2006JP306338 WO 2006/112239 世界知的所有権機関(WIPO) hTERT GENE EXPRESSION REGULATORY GENE 新技術説明会 2012/04/11 2012/04/26 鳥取大学
1392 2011JP060515 WO 2011/138937 世界知的所有権機関(WIPO) POLYACRYLONITRILE POROUS BODY 新技術説明会 2012/04/12 2012/04/26 大阪大学
1393 2011JP063249 WO 2012/002126 世界知的所有権機関(WIPO) ANGLE DETECTION DEVICE 2012/04/16 2012/04/26 九州大学
1394 2011JP064349 WO 2011/162320 世界知的所有権機関(WIPO) COMBINATION OF EGCG OR METHYLATED EGCG AND A PDE INHIBITOR 2012/04/16 2012/04/26 九州大学
1395 2011JP005907 WO 2012/060068 世界知的所有権機関(WIPO) CURABLE URETHANE COMPOSITION, CURED PRODUCT THEREOF, KIT AND CURRED PRODUCT PRODUCTION METHOD 2012/04/17 2012/05/31 三重大学
1396 2011JP003412 WO 2011/158503 世界知的所有権機関(WIPO) METHOD FOR MEASUREMENT OF VIBRATION PROPERTY OF STRUCTURE, AND VIBRATION PROPERTY MEASUREMENT DEVICE 新技術説明会 2012/04/18 2012/04/26 芝浦工業大学
1397 2011JP074098 WO 2012/056976 世界知的所有権機関(WIPO) MODULATOR OF ACTIVITY OF ADENYLATE CYCLASE 2012/04/18 2012/05/31 横浜市立大学
1398 2010JP053759 WO 2010/122846 世界知的所有権機関(WIPO) COCKTAIL ANTIBODY FOR DETERMINING HISTOLOGICAL TYPE OF CARCINOMA, DETERMINATION KIT AND DETERMINATION METHOD 2012/04/23 2012/04/26 富山大学
1399 2011JP067955 WO 2012/020707 世界知的所有権機関(WIPO) THREE-DIMENSIONAL GUIDE FOR WIRE FOR PREPARING PEDICLE SCREW INSERTION HOLE 2012/04/23 2012/04/26 富山大学
1400 2012JP001342 WO 2012/147255 世界知的所有権機関(WIPO) WATER-ABSORBING AND LIQUID-ABSORBING POLYMER 新技術説明会 2012/04/23 2012/11/07 苫小牧工業高等専門学校

PAGE TOP